Temp
-11 -11 -11 -11 -11 -11 -11 -11 -11 -11 -11 -11 -11 -11 -11 -11 -11 -11 -11 -11 -11 -11 -11 -11 -11 -11 -11 -11 -11 -11 -12 -12 -12 -12 -12 -12 -12 -12 -12 -12 -12 -12 -13
-11 -11 -11 -11 -11 -11 -11 -11 -11 -11 -11 -11 -11 -11 -11 -11 -11 -11 -12 -11 -11 -11 -11 -11 -12 -11 -12 -12 -12 -12 -12 -12 -12 -12 -12 -12 -12 -12 -12 -12 -12 -12 -12
-12 -12 -12 -12 -12 -11 -11 -11 -12 -12 -12 -12 -12 -11 -12 -11 -11 -12 -12 -12 -12 -12 -11 -11 -11 -12 -12 -12 -12 -12 -12 -12 -12 -12 -12 -12 -12 -12 -12 -12 -12 -12 -12
-12 -12 -12 -12 -12 -12 -12 -12 -12 -12 -12 -12 -12 -12 -12 -12 -12 -12 -12 -12 -12 -12 -12 -12 -12 -12 -12 -12 -12 -12 -12 -12 -12 -12 -12 -12 -12 -12 -12 -12 -12 -12 -12
-12 -12 -12 -12 -12 -12 -12 -12 -12 -12 -12 -12 -12 -12 -12 -12 -12 -12 -12 -12 -12 -12 -12 -12 -12 -12 -12 -12 -12 -12 -12 -12 -13 -13 -12 -12 -12 -13 -13 -13 -13 -13 -13
-12 -12 -12 -12 -12 -12 -12 -13 -13 -13 -13 -13 -13 -13 -13 -13 -13 -13 -13 -13 -13 -13 -12 -13 -13 -13 -13 -13 -13 -13 -13 -13 -13 -13 -13 -13 -13 -13 -13 -13 -13 -14 -14
-12 -12 -12 -13 -13 -13 -13 -13 -13 -13 -13 -13 -13 -13 -14 -14 -14 -14 -13 -13 -13 -13 -13 -13 -13 -13 -13 -13 -14 -14 -14 -14 -14 -14 -14 -14 -14 -14 -14 -14 -14 -15 -15
-12 -12 -12 -12 -13 -13 -13 -13 -13 -13 -13 -14 -14 -14 -14 -14 -14 -14 -14 -14 -14 -13 -13 -13 -13 -13 -13 -14 -14 -14 -14 -15 -15 -15 -14 -14 -14 -14 -15 -15 -15 -17 -17
-12 -12 -13 -13 -13 -13 -13 -13 -14 -14 -14 -14 -14 -14 -14 -15 -14 -15 -15 -15 -14 -14 -14 -14 -14 -14 -14 -15 -15 -15 -15 -15 -16 -15 -15 -15 -16 -16 -16 -16 -17 -18 -19
-12 -12 -13 -13 -13 -13 -13 -14 -14 -14 -14 -15 -15 -15 -15 -14 -15 -15 -15 -15 -15 -15 -15 -15 -15 -15 -16 -16 -16 -16 -16 -16 -16 -16 -16 -17 -17 -18 -18 -18 -19 -19 -20
-13 -13 -13 -13 -13 -14 -14 -14 -14 -15 -15 -15 -15 -15 -15 -15 -15 -15 -15 -15 -15 -15 -15 -16 -16 -16 -17 -17 -17 -17 -17 -17 -17 -17 -18 -18 -19 -19 -19 -19 -20 -20 -20
-13 -13 -13 -14 -14 -14 -14 -14 -15 -15 -15 -16 -16 -15 -15 -16 -16 -16 -16 -16 -16 -16 -16 -17 -17 -17 -17 -17 -17 -17 -17 -18 -18 -19 -20 -21 -21 -21 -21 -20 -19 -19 -20
-13 -14 -14 -14 -14 -14 -15 -15 -15 -15 -16 -16 -16 -16 -16 -16 -17 -17 -17 -17 -17 -17 -17 -17 -17 -18 -17 -18 -18 -18 -18 -19 -20 -21 -22 -22 -23 -22 -22 -21 -20 -20 -20
-14 -14 -15 -15 -15 -15 -15 -15 -16 -16 -16 -17 -16 -17 -17 -17 -17 -17 -17 -17 -17 -17 -17 -17 -18 -18 -18 -18 -19 -19 -20 -21 -21 -23 -23 -23 -23 -23 -23 -22 -22 -21 -22
-15 -15 -15 -15 -15 -16 -16 -16 -16 -17 -17 -17 -17 -17 -17 -17 -17 -17 -18 -18 -18 -18 -18 -18 -18 -19 -19 -19 -19 -20 -21 -22 -23 -24 -23 -23 -23 -24 -24 -23 -23 -23 -23
-14 -15 -15 -16 -16 -16 -16 -16 -17 -17 -17 -18 -17 -17 -17 -18 -18 -18 -18 -18 -18 -19 -19 -19 -19 -19 -20 -20 -21 -22 -22 -23 -24 -24 -24 -23 -24 -24 -24 -24 -24 -23 -23
-15 -15 -16 -16 -16 -16 -17 -17 -17 -17 -18 -18 -18 -18 -18 -18 -18 -18 -18 -19 -19 -19 -19 -20 -20 -20 -21 -22 -23 -23 -24 -24 -24 -24 -24 -24 -24 -24 -24 -24 -24 -24 -23
-15 -15 -16 -17 -17 -17 -17 -17 -18 -18 -18 -18 -18 -18 -18 -18 -19 -19 -19 -19 -20 -20 -20 -20 -20 -21 -22 -23 -24 -24 -25 -24 -24 -24 -24 -24 -24 -24 -24 -24 -24 -23 -23
-16 -17 -17 -17 -17 -17 -17 -18 -18 -18 -19 -19 -19 -19 -19 -19 -20 -20 -20 -20 -21 -20 -20 -21 -22 -22 -23 -24 -24 -25 -25 -25 -24 -24 -24 -24 -24 -24 -24 -24 -23 -23 -23
-17 -17 -17 -18 -18 -18 -19 -19 -19 -19 -19 -19 -20 -20 -20 -20 -20 -21 -21 -21 -21 -21 -22 -23 -23 -24 -24 -25 -25 -25 -25 -25 -24 -24 -25 -24 -24 -24 -24 -23 -23 -23 -23
-17 -18 -18 -19 -19 -19 -19 -20 -20 -20 -20 -20 -20 -21 -21 -21 -22 -21 -22 -22 -21 -22 -23 -24 -24 -25 -25 -25 -25 -25 -25 -24 -24 -24 -24 -24 -24 -24 -24 -24 -23 -23 -23
-19 -19 -20 -20 -20 -20 -21 -20 -20 -20 -21 -21 -21 -21 -22 -22 -22 -22 -22 -22 -23 -24 -24 -25 -25 -25 -25 -25 -25 -25 -25 -24 -25 -25 -24 -24 -24 -24 -24 -24 -24 -24 -23
-19 -20 -20 -21 -21 -21 -21 -21 -21 -21 -22 -22 -22 -22 -22 -23 -23 -23 -23 -24 -25 -25 -25 -25 -25 -25 -25 -25 -25 -25 -25 -25 -25 -24 -24 -24 -24 -24 -24 -24 -24 -24 -24
-19 -20 -21 -22 -23 -23 -23 -22 -23 -22 -23 -23 -23 -23 -23 -23 -24 -25 -25 -25 -26 -26 -26 -26 -25 -26 -25 -25 -25 -25 -25 -25 -25 -24 -24 -24 -24 -24 -24 -24 -24 -24 -24
-20 -22 -23 -23 -23 -23 -24 -23 -23 -23 -23 -24 -24 -24 -24 -25 -26 -26 -26 -26 -26 -26 -26 -26 -26 -26 -25 -25 -25 -25 -25 -25 -25 -24 -24 -24 -24 -24 -24 -24 -24 -24 -24
-21 -22 -25 -25 -25 -25 -24 -24 -24 -24 -24 -24 -24 -25 -26 -26 -26 -26 -26 -26 -26 -26 -26 -26 -26 -26 -26 -25 -25 -25 -25 -25 -25 -24 -24 -24 -24 -24 -24 -24 -24 -24 -24
Height
5853 5852 5851 5849 5848 5847 5846 5844 5843 5842 5840 5839 5837 5835 5833 5832 5831 5830 5827 5825 5824 5823 5821 5819 5817 5815 5814 5812 5810 5808 5807 5805 5804 5803 5802 5800 5798 5796 5796 5795 5794 5793 5793
5848 5847 5847 5846 5846 5845 5844 5842 5841 5839 5837 5836 5834 5831 5829 5827 5825 5823 5821 5819 5817 5816 5815 5813 5811 5809 5808 5806 5804 5802 5800 5798 5796 5794 5793 5792 5790 5789 5787 5785 5785 5783 5782
5844 5844 5843 5843 5842 5841 5839 5838 5836 5834 5833 5830 5828 5826 5823 5821 5818 5816 5814 5812 5810 5808 5806 5805 5803 5802 5800 5798 5796 5794 5792 5791 5789 5786 5784 5781 5780 5778 5776 5775 5773 5771 5770
5840 5839 5838 5837 5836 5835 5834 5832 5830 5828 5826 5824 5822 5819 5816 5813 5812 5809 5807 5805 5803 5800 5798 5796 5794 5793 5791 5789 5786 5784 5782 5780 5778 5775 5773 5771 5769 5767 5765 5763 5760 5759 5759
5833 5832 5831 5830 5828 5827 5826 5825 5822 5821 5819 5816 5814 5811 5808 5806 5803 5800 5797 5795 5793 5789 5788 5786 5784 5782 5780 5777 5775 5773 5770 5768 5765 5763 5761 5759 5756 5754 5752 5750 5748 5746 5743
5826 5825 5824 5822 5821 5820 5818 5816 5815 5812 5810 5807 5805 5802 5798 5796 5792 5789 5787 5786 5784 5781 5778 5776 5774 5772 5770 5767 5764 5760 5758 5755 5753 5750 5747 5745 5743 5740 5738 5735 5733 5731 5729
5819 5817 5816 5815 5813 5812 5809 5808 5806 5803 5800 5797 5795 5792 5789 5786 5783 5781 5778 5775 5772 5770 5767 5765 5762 5760 5757 5755 5751 5748 5745 5742 5739 5736 5733 5730 5728 5725 5722 5720 5718 5717 5715
5811 5810 5808 5806 5804 5802 5800 5798 5795 5792 5790 5788 5784 5781 5778 5776 5771 5769 5766 5763 5761 5757 5755 5752 5750 5746 5744 5741 5737 5733 5731 5728 5725 5722 5718 5714 5712 5710 5707 5705 5702 5699 5699
5801 5800 5798 5796 5793 5791 5788 5786 5784 5781 5778 5775 5771 5768 5765 5764 5761 5759 5755 5752 5749 5745 5742 5740 5736 5733 5730 5727 5724 5720 5716 5713 5710 5706 5703 5699 5695 5692 5689 5686 5684 5683 5683
5792 5790 5788 5786 5783 5781 5778 5776 5774 5771 5768 5764 5761 5757 5753 5749 5746 5744 5742 5740 5737 5734 5731 5727 5722 5719 5716 5712 5707 5703 5700 5697 5694 5689 5685 5681 5678 5675 5672 5670 5669 5670 5669
5783 5779 5777 5775 5772 5770 5767 5765 5763 5760 5757 5753 5748 5743 5740 5737 5733 5731 5729 5725 5721 5717 5715 5711 5706 5702 5700 5695 5692 5688 5684 5680 5676 5671 5667 5665 5663 5662 5662 5659 5658 5656 5657
5772 5768 5766 5763 5761 5758 5755 5752 5750 5748 5744 5740 5736 5731 5728 5724 5721 5716 5713 5710 5707 5704 5700 5696 5690 5687 5685 5679 5675 5671 5666 5662 5656 5653 5650 5649 5649 5649 5651 5656 5652 5636 5643
5759 5757 5754 5750 5747 5744 5741 5738 5736 5733 5730 5726 5722 5718 5714 5709 5704 5700 5697 5693 5690 5687 5685 5681 5676 5672 5668 5663 5658 5654 5650 5645 5640 5638 5636 5637 5637 5638 5639 5640 5636 5636 5636
5746 5743 5740 5737 5734 5731 5727 5725 5722 5719 5716 5712 5708 5703 5698 5692 5687 5683 5680 5677 5675 5672 5668 5664 5660 5655 5651 5646 5641 5637 5632 5629 5626 5625 5624 5624 5625 5625 5626 5628 5625 5625 5627
5733 5730 5727 5723 5720 5716 5712 5709 5705 5703 5700 5695 5691 5687 5680 5674 5672 5669 5666 5662 5659 5656 5652 5649 5646 5638 5633 5629 5625 5620 5616 5614 5613 5613 5614 5614 5614 5615 5616 5617 5617 5616 5617
5718 5715 5711 5708 5704 5700 5696 5693 5689 5686 5683 5679 5673 5669 5664 5660 5656 5653 5649 5645 5642 5639 5636 5631 5627 5622 5616 5611 5608 5605 5603 5602 5603 5604 5604 5603 5603 5605 5607 5608 5608 5609 5609
5704 5701 5697 5692 5688 5684 5680 5677 5673 5669 5667 5661 5655 5652 5648 5645 5642 5638 5634 5629 5624 5621 5620 5615 5611 5606 5601 5596 5594 5592 5591 5591 5593 5594 5595 5594 5596 5597 5598 5599 5600 5601 5602
5686 5683 5679 5674 5670 5666 5663 5660 5657 5654 5650 5644 5638 5635 5632 5629 5626 5622 5619 5616 5609 5605 5604 5599 5596 5591 5588 5584 5582 5581 5581 5582 5584 5584 5585 5586 5589 5591 5590 5590 5591 5591 5593
5668 5664 5660 5657 5653 5649 5646 5642 5640 5636 5631 5627 5623 5619 5616 5614 5610 5606 5603 5600 5596 5591 5587 5584 5580 5576 5575 5573 5571 5571 5572 5574 5575 5577 5578 5578 5580 5582 5582 5582 5582 5582 5584
5649 5646 5642 5638 5635 5633 5630 5626 5623 5619 5615 5610 5606 5604 5601 5597 5594 5590 5587 5584 5581 5577 5573 5569 5567 5565 5564 5563 5561 5562 5563 5565 5567 5570 5571 5571 5573 5575 5575 5575 5575 5575 5576
5631 5628 5624 5622 5619 5616 5613 5610 5606 5603 5599 5594 5591 5587 5584 5581 5578 5576 5573 5570 5567 5562 5559 5557 5556 5555 5554 5553 5553 5555 5555 5557 5559 5562 5565 5565 5567 5568 5569 5569 5568 5569 5569
5612 5609 5606 5603 5600 5598 5598 5591 5587 5584 5581 5577 5574 5572 5569 5566 5563 5561 5559 5556 5551 5549 5547 5546 5546 5544 5544 5544 5545 5547 5548 5550 5553 5555 5558 5559 5561 5562 5563 5563 5563 5563 5563
5590 5587 5584 5582 5581 5579 5577 5575 5571 5567 5564 5561 5559 5556 5554 5551 5548 5545 5543 5542 5540 5537 5535 5534 5535 5534 5534 5535 5536 5539 5541 5544 5546 5549 5552 5554 5555 5557 5557 5557 5558 5558 5558
5568 5564 5561 5559 5560 5559 5558 5555 5553 5550 5547 5545 5542 5541 5539 5536 5532 5532 5531 5530 5528 5526 5525 5523 5524 5523 5524 5525 5528 5531 5534 5537 5540 5543 5546 5548 5550 5551 5552 5553 5553 5554 5554
5545 5541 5541 5541 5541 5540 5540 5539 5537 5534 5532 5531 5528 5526 5523 5520 5521 5520 5520 5519 5518 5516 5514 5513 5514 5513 5514 5517 5520 5524 5528 5530 5534 5538 5541 5543 5545 5546 5547 5548 5548 5548 5549
5521 5519 5517 5518 5520 5523 5522 5521 5521 5520 5519 5516 5515 5513 5514 5513 5512 5511 5510 5508 5507 5506 5505 5504 5505 5504 5506 5510 5514 5517 5520 5524 5528 5532 5535 5538 5540 5541 5542 5543 5543 5543 5543
Wind_Speed
17 16 16 15 15 13 10 10 12 14 17 18 20 21 22 23 23 23 24 25 24 23 23 24 24 26 28 28 28 28 29 30 31 32 32 33 34 36 39 39 34 37 38
18 17 18 18 17 16 16 15 17 18 20 22 24 26 27 27 27 28 28 29 30 30 30 28 29 29 31 32 33 32 34 35 35 36 37 38 40 39 40 43 45 45 44
20 20 21 21 22 23 24 26 27 27 26 27 27 28 31 32 34 33 33 34 35 35 35 34 34 33 34 35 35 37 38 39 40 42 42 43 44 45 44 45 48 50 52
24 24 24 25 26 28 29 31 32 32 32 32 33 33 34 36 37 38 38 38 39 39 39 39 39 39 40 40 42 42 43 43 45 47 47 46 46 49 51 50 53 54 55
27 27 27 27 29 31 33 34 35 35 36 37 37 37 37 39 41 42 42 41 40 41 41 41 41 42 45 46 47 47 48 49 49 50 50 50 50 52 54 55 57 59 59
28 29 29 31 33 34 36 37 37 39 40 41 41 41 41 41 43 44 44 43 42 43 44 44 44 46 48 50 51 52 52 53 53 53 52 53 54 56 57 57 58 60 62
30 32 33 35 36 37 39 40 41 42 42 43 43 44 44 44 45 46 46 46 45 45 46 46 49 49 51 53 53 55 54 54 55 55 54 55 54 54 55 58 59 59 61
34 35 37 39 40 42 43 43 43 43 44 44 45 45 45 47 47 47 48 49 48 49 50 51 52 54 56 56 55 55 56 56 56 55 56 53 52 54 56 61 64 62 59
36 36 37 39 41 42 43 43 43 43 44 45 48 48 47 45 48 50 51 51 52 52 53 53 56 56 56 57 56 57 58 59 58 57 54 53 54 58 63 66 65 54 48
37 39 40 40 42 43 44 44 44 43 44 45 46 48 51 52 53 53 51 52 53 55 55 56 58 57 57 58 58 58 59 59 59 55 55 58 58 50 48 49 48 44 44
39 41 41 42 43 43 43 45 45 45 46 48 50 51 52 51 52 54 55 56 56 55 56 57 58 58 57 60 61 62 61 62 59 60 60 59 52 46 43 41 40 38 36
42 44 44 45 46 47 48 48 47 47 47 47 48 50 51 53 55 57 58 57 59 60 59 58 59 60 60 60 61 62 59 60 63 61 56 49 45 39 37 32 23 25 36
47 47 47 49 51 53 54 53 53 52 49 47 50 54 56 58 57 58 59 61 60 59 58 60 61 60 61 62 61 60 60 61 58 52 47 39 33 33 36 39 46 27 29
49 50 50 53 55 57 58 57 56 55 52 52 56 60 60 59 61 64 63 63 62 62 62 59 58 60 63 62 62 61 58 55 48 43 35 32 31 31 32 36 46 51 46
51 53 55 59 61 62 62 62 60 57 60 61 65 63 61 64 64 61 60 62 63 60 58 59 59 61 60 59 62 58 50 46 44 38 33 33 29 27 29 30 31 34 35
57 60 63 64 65 67 67 66 65 63 63 64 69 70 67 62 62 63 62 61 60 58 56 58 59 59 59 56 52 48 44 42 35 33 28 30 30 29 31 34 36 36 38
65 66 67 68 70 70 71 67 66 64 63 66 70 71 71 68 66 63 62 62 60 60 59 58 59 58 54 49 45 41 39 34 30 34 31 30 22 27 29 29 34 34 33
67 68 69 72 73 74 71 68 64 62 66 67 68 68 65 65 65 63 66 65 63 59 59 61 60 59 51 44 40 37 35 27 27 29 33 25 33 29 28 33 35 35 34
71 72 73 73 73 72 70 64 64 64 62 64 65 64 63 66 65 68 66 64 56 57 60 62 56 49 42 38 35 33 31 30 25 30 28 29 29 27 27 26 25 27 30
71 72 72 70 68 65 64 65 64 66 66 65 67 65 66 67 64 61 61 55 53 54 54 51 47 43 37 33 30 27 27 32 29 32 26 27 27 25 25 24 24 25 28
68 68 67 66 65 64 65 66 66 63 66 67 67 67 67 63 58 58 55 56 55 48 48 45 40 37 33 30 28 24 23 27 27 31 28 28 23 22 22 23 20 20 21
66 66 64 64 64 62 54 54 64 65 68 66 67 60 57 62 61 60 56 52 46 44 40 39 37 35 31 28 27 27 23 24 26 30 27 22 21 20 22 20 18 18 19
68 66 64 62 60 55 56 62 68 72 65 61 64 61 58 58 59 53 45 42 40 38 37 36 36 32 29 29 27 26 23 25 27 28 24 20 19 22 18 15 14 15 16
76 73 66 58 51 52 50 54 59 54 59 56 48 49 53 53 41 37 38 38 38 36 34 32 33 28 29 27 28 27 24 25 29 27 22 19 20 19 17 16 16 16 17
80 75 65 63 60 47 44 50 57 50 52 54 53 53 51 32 32 33 33 33 34 34 34 32 29 26 23 25 26 27 24 24 27 26 23 19 20 19 17 17 17 18 17
85 76 56 50 37 42 46 53 44 53 50 49 48 30 20 24 28 29 28 29 31 31 28 24 23 21 21 23 24 23 23 22 25 25 22 21 20 18 16 16 17 17 19
Wind_Direction
303 297 296 284 282 278 292 301 304 310 304 300 293 284 281 280 283 286 290 292 291 291 290 288 289 292 294 297 298 300 302 303 303 301 299 301 300 298 296 295 289 286 281
290 285 285 277 275 280 290 298 305 306 306 306 303 298 287 284 285 284 284 286 289 288 287 289 291 288 290 293 293 295 298 300 300 300 300 297 297 296 294 292 291 288 285
291 291 288 284 280 280 286 292 297 300 302 302 302 300 295 287 280 281 284 285 284 287 287 287 287 288 289 292 292 293 293 293 295 296 296 295 293 293 292 288 287 284 284
290 290 289 287 284 283 284 288 291 294 295 297 298 297 295 292 288 285 285 284 286 286 286 286 287 288 289 289 292 292 291 292 293 294 293 292 289 290 290 287 286 285 282
289 287 286 284 282 282 286 289 292 293 293 294 295 295 293 291 288 286 285 284 284 283 284 284 286 288 290 292 293 292 291 292 292 293 291 291 290 289 288 284 284 284 281
285 286 285 284 284 286 288 290 292 294 296 296 296 295 291 290 288 285 285 285 286 286 287 288 289 291 293 294 295 293 293 292 292 291 289 289 288 286 284 281 281 280 279
288 288 288 288 289 289 290 292 294 294 294 295 295 294 290 288 287 286 285 285 285 287 288 288 290 290 291 294 293 292 290 290 291 289 288 287 285 282 280 280 279 277 275
287 287 288 289 290 291 292 292 292 292 293 294 293 292 289 288 286 285 285 285 286 288 289 289 288 289 291 291 291 290 290 288 288 286 286 286 285 283 279 276 274 272 270
284 286 287 288 289 289 289 289 290 291 290 290 290 290 288 286 285 286 283 283 285 286 288 287 287 289 289 291 291 289 287 285 289 287 287 287 282 276 273 273 276 276 269
285 285 286 287 289 290 291 291 290 289 289 288 289 289 287 286 288 287 285 285 285 286 287 287 287 289 289 291 289 287 285 286 289 288 284 281 279 279 276 275 273 270 264
284 284 285 286 287 290 291 292 291 290 289 289 286 285 286 286 287 287 288 289 288 287 287 288 287 287 291 292 293 291 286 290 289 287 284 280 276 270 270 273 273 267 263
281 282 284 286 288 289 291 292 292 290 289 287 287 286 285 286 288 288 289 289 289 290 290 291 290 290 293 293 293 292 290 292 288 286 283 276 272 269 263 264 232 232 245
281 284 285 286 289 292 294 293 294 293 291 289 289 290 290 291 290 289 288 288 290 292 292 291 291 291 293 294 294 295 292 288 286 283 278 275 269 265 259 245 235 237 221
279 284 283 288 292 293 293 292 293 294 293 292 291 292 291 288 286 288 288 288 291 294 293 291 292 292 295 296 296 296 291 287 282 277 265 264 267 267 260 248 254 252 259
281 284 286 288 290 292 292 293 291 294 292 289 291 292 289 286 287 287 288 291 293 294 294 295 295 297 295 296 297 293 287 282 276 264 265 261 254 252 257 257 259 264 267
285 288 288 288 288 290 292 292 291 285 287 290 289 289 287 284 284 286 293 296 295 294 295 296 296 295 298 297 294 286 282 277 273 255 270 254 246 246 246 253 255 260 263
285 286 286 287 287 289 290 289 289 287 289 288 286 286 287 287 291 292 294 295 295 295 297 297 297 298 294 288 284 282 279 275 267 255 259 251 265 257 252 258 268 258 256
284 283 283 283 285 287 288 287 285 284 286 285 285 285 288 289 291 291 291 293 293 296 296 299 297 295 289 283 281 279 276 255 265 256 246 247 250 256 263 262 263 256 249
282 282 283 283 283 284 284 281 282 281 279 283 284 285 286 288 290 289 292 297 295 297 298 296 290 284 282 282 278 275 267 248 264 245 234 239 249 263 266 267 268 257 250
279 279 280 280 281 280 278 277 278 280 284 281 287 287 286 286 289 293 294 294 295 297 294 288 283 282 282 279 272 267 260 252 254 234 229 245 255 260 266 267 265 259 257
281 281 280 280 279 279 279 280 280 280 281 283 281 283 286 287 291 292 290 293 293 290 284 282 281 283 283 274 266 251 258 241 245 236 237 246 253 260 272 272 269 264 260
280 280 280 278 279 278 275 269 274 279 279 282 281 283 285 288 287 287 285 288 282 279 279 280 282 283 271 268 263 249 259 247 242 236 237 243 250 262 262 261 262 262 258
286 286 284 282 281 276 270 268 271 272 275 277 279 281 284 287 284 280 280 275 273 275 276 279 284 277 263 263 252 245 254 248 238 234 236 239 253 260 257 265 268 268 268
289 290 291 291 272 281 274 269 267 270 278 277 279 280 281 275 277 273 270 272 275 276 280 280 281 268 264 247 240 236 247 242 241 239 238 240 251 251 255 264 269 268 267
291 290 287 284 278 268 270 268 268 273 277 282 280 276 272 266 267 271 276 279 282 286 282 278 272 272 250 237 234 232 243 234 237 235 234 241 246 246 251 260 267 272 270
289 289 279 280 257 272 264 270 272 275 276 273 270 264 276 275 276 280 282 284 287 285 278 267 273 265 238 229 227 228 230 233 229 227 230 242 243 245 251 261 266 269 271